owner,sensor,date,latitude,longitude,vertical_datum,direction_of_sea_water_velocity,sea_water_speed,upward_sea_water_velocity,qcFlag 
TABS,ioos:station:wmo:42049:1,2002-07-01T00:00:00Z,28.3507,-96.0058,2.0,109.2833373,8.115294203,-99999.0,'11133222,11111222,99999999' 
TABS,ioos:station:wmo:42049:1,2002-07-01T00:30:00Z,28.3507,-96.0058,2.0,105.9604922,10.40094227,-99999.0,'11111222,11111222,99999999' 
TABS,ioos:station:wmo:42049:1,2002-07-01T01:00:00Z,28.3507,-96.0058,2.0,112.3405957,7.892401409,-99999.0,'11133222,11111222,99999999' 
TABS,ioos:station:wmo:42049:1,2002-07-01T01:30:00Z,28.3507,-96.0058,2.0,115.527138,6.172560247,-99999.0,'11133222,11111222,99999999' 
TABS,ioos:station:wmo:42049:1,2002-07-01T02:00:00Z,28.3507,-96.0058,2.0,135.9669813,10.47374336,-99999.0,'11111222,11111222,99999999' 
TABS,ioos:station:wmo:42049:1,2002-07-01T02:30:00Z,28.3507,-96.0058,2.0,139.1548804,15.81003479,-99999.0,'11111222,11111222,99999999' 
TABS,ioos:station:wmo:42049:1,2002-07-01T03:00:00Z,28.3507,-96.0058,2.0,149.3769689,16.43157022,-99999.0,'11111222,11111222,99999999' 
TABS,ioos:station:wmo:42049:1,2002-07-01T03:30:00Z,28.3507,-96.0058,2.0,155.1875071,15.06025564,-99999.0,'11111222,11111222,99999999' 
TABS,ioos:station:wmo:42049:1,2002-07-01T04:00:00Z,28.3507,-96.0058,2.0,156.2955289,15.32274453,-99999.0,'11111222,11111222,99999999' 
TABS,ioos:station:wmo:42049:1,2002-07-01T04:30:00Z,28.3507,-96.0058,2.0,168.7498251,13.12213778,-99999.0,'11111222,11111222,99999999' 
TABS,ioos:station:wmo:42049:1,2002-07-01T05:00:00Z,28.3507,-96.0058,2.0,177.3992342,13.00339187,-99999.0,'11111222,11111222,99999999' 
TABS,ioos:station:wmo:42049:1,2002-07-01T05:30:00Z,28.3507,-96.0058,2.0,170.5739702,18.07402833,-99999.0,'11111222,11111222,99999999' 
TABS,ioos:station:wmo:42049:1,2002-07-01T06:00:00Z,28.3507,-96.0058,2.0,184.5617196,22.88249331,-99999.0,'11111222,11111222,99999999' 
TABS,ioos:station:wmo:42049:1,2002-07-01T06:30:00Z,28.3507,-96.0058,2.0,192.3284737,23.60434706,-99999.0,'11111222,11111222,99999999' 
TABS,ioos:station:wmo:42049:1,2002-07-01T07:00:00Z,28.3507,-96.0058,2.0,199.3467954,23.24252353,-99999.0,'11111222,11111222,99999999' 
TABS,ioos:station:wmo:42049:1,2002-07-01T07:30:00Z,28.3507,-96.0058,2.0,206.4110536,23.3356894,-99999.0,'11111222,11111222,99999999' 
TABS,ioos:station:wmo:42049:1,2002-07-01T08:00:00Z,28.3507,-96.0058,2.0,204.0107973,17.96452616,-99999.0,'11111222,11111222,99999999' 
TABS,ioos:station:wmo:42049:1,2002-07-01T08:30:00Z,28.3507,-96.0058,2.0,211.7620519,16.24249365,-99999.0,'11111222,11111222,99999999' 
TABS,ioos:station:wmo:42049:1,2002-07-01T09:00:00Z,28.3507,-96.0058,2.0,208.344062,19.58845578,-99999.0,'11111222,11111222,99999999' 
TABS,ioos:station:wmo:42049:1,2002-07-01T09:30:00Z,28.3507,-96.0058,2.0,218.3490392,19.59853311,-99999.0,'11111222,11111222,99999999' 
TABS,ioos:station:wmo:42049:1,2002-07-01T10:00:00Z,28.3507,-96.0058,2.0,220.9227664,16.60954244,-99999.0,'11111222,11111222,99999999' 
TABS,ioos:station:wmo:42049:1,2002-07-01T10:30:00Z,28.3507,-96.0058,2.0,216.2212705,14.31691657,-99999.0,'11111222,11111222,99999999' 
TABS,ioos:station:wmo:42049:1,2002-07-01T11:00:00Z,28.3507,-96.0058,2.0,221.7771385,11.57242412,-99999.0,'11111222,11111222,99999999' 
TABS,ioos:station:wmo:42049:1,2002-07-01T11:30:00Z,28.3507,-96.0058,2.0,230.6429894,10.7861578,-99999.0,'11111222,11111222,99999999' 
TABS,ioos:station:wmo:42049:1,2002-07-01T12:00:00Z,28.3507,-96.0058,2.0,223.4633878,9.231061694,-99999.0,'11133222,11111222,99999999' 
TABS,ioos:station:wmo:42049:1,2002-07-01T12:30:00Z,28.3507,-96.0058,2.0,237.9449346,11.07910195,-99999.0,'11111222,11111222,99999999' 
TABS,ioos:station:wmo:42049:1,2002-07-01T13:00:00Z,28.3507,-96.0058,2.0,228.62989,11.726146,-99999.0,'11111222,11111222,99999999' 
TABS,ioos:station:wmo:42049:1,2002-07-01T18:00:00Z,28.3507,-96.0058,2.0,167.7447936,2.496898076,-99999.0,'11133222,11111222,99999999' 
TABS,ioos:station:wmo:42049:1,2002-07-01T18:30:00Z,28.3507,-96.0058,2.0,139.1848011,1.162755348,-99999.0,'11133222,11111222,99999999' 
TABS,ioos:station:wmo:42049:1,2002-07-01T19:00:00Z,28.3507,-96.0058,2.0,85.67773305,1.724905795,-99999.0,'11133222,11111222,99999999' 
TABS,ioos:station:wmo:42049:1,2002-07-01T19:30:00Z,28.3507,-96.0058,2.0,116.7364041,5.979272531,-99999.0,'11133222,11111222,99999999' 
TABS,ioos:station:wmo:42049:1,2002-07-01T20:00:00Z,28.3507,-96.0058,2.0,137.3954817,5.244244464,-99999.0,'11133222,11111222,99999999' 
TABS,ioos:station:wmo:42049:1,2002-07-01T20:30:00Z,28.3507,-96.0058,2.0,136.2187672,5.318646444,-99999.0,'11133222,11111222,99999999' 
TABS,ioos:station:wmo:42049:1,2002-07-01T21:00:00Z,28.3507,-96.0058,2.0,121.4349194,5.004497977,-99999.0,'11133222,11111222,99999999' 
TABS,ioos:station:wmo:42049:1,2002-07-01T21:30:00Z,28.3507,-96.0058,2.0,106.0202548,2.101618424,-99999.0,'11133222,11111222,99999999' 
TABS,ioos:station:wmo:42049:1,2002-07-01T22:00:00Z,28.3507,-96.0058,2.0,105.5335154,3.248661263,-99999.0,'11133222,11111222,99999999' 
TABS,ioos:station:wmo:42049:1,2002-07-01T22:30:00Z,28.3507,-96.0058,2.0,130.8352319,2.920992982,-99999.0,'11133222,11111222,99999999' 
TABS,ioos:station:wmo:42049:1,2002-07-01T23:00:00Z,28.3507,-96.0058,2.0,121.0390235,10.43398294,-99999.0,'11111222,11111222,99999999' 
TABS,ioos:station:wmo:42049:1,2002-07-02T00:00:00Z,28.3507,-96.0058,2.0,145.1515347,13.72053935,-99999.0,'11111222,11111222,99999999' 
TABS,ioos:station:wmo:42049:1,2002-07-02T00:30:00Z,28.3507,-96.0058,2.0,136.6011349,11.13420855,-99999.0,'11111222,11111222,99999999' 
TABS,ioos:station:wmo:42049:1,2002-07-02T01:00:00Z,28.3507,-96.0058,2.0,147.3971321,14.03089448,-99999.0,'11111222,11111222,99999999' 
TABS,ioos:station:wmo:42049:1,2002-07-02T01:30:00Z,28.3507,-96.0058,2.0,153.1719783,7.799487163,-99999.0,'11133222,11111222,99999999' 
TABS,ioos:station:wmo:42049:1,2002-07-02T02:00:00Z,28.3507,-96.0058,2.0,147.5590406,11.57657117,-99999.0,'11111222,11111222,99999999' 
TABS,ioos:station:wmo:42049:1,2002-07-02T02:30:00Z,28.3507,-96.0058,2.0,157.065244,16.24409123,-99999.0,'11111222,11111222,99999999' 
TABS,ioos:station:wmo:42049:1,2002-07-02T03:00:00Z,28.3507,-96.0058,2.0,157.3346208,17.49077471,-99999.0,'11111222,11111222,99999999' 
TABS,ioos:station:wmo:42049:1,2002-07-02T03:30:00Z,28.3507,-96.0058,2.0,158.2763516,17.75063379,-99999.0,'11111222,11111222,99999999' 
TABS,ioos:station:wmo:42049:1,2002-07-02T04:00:00Z,28.3507,-96.0058,2.0,166.3607694,19.59249856,-99999.0,'11111222,11111222,99999999' 
TABS,ioos:station:wmo:42049:1,2002-07-02T04:30:00Z,28.3507,-96.0058,2.0,167.1015858,16.48597283,-99999.0,'11111222,11111222,99999999' 
TABS,ioos:station:wmo:42049:1,2002-07-02T05:00:00Z,28.3507,-96.0058,2.0,160.0133497,14.48221668,-99999.0,'11111222,11111222,99999999' 
TABS,ioos:station:wmo:42049:1,2002-07-02T06:00:00Z,28.3507,-96.0058,2.0,166.2980197,15.78933817,-99999.0,'11111222,11111222,99999999' 
TABS,ioos:station:wmo:42049:1,2002-07-02T06:30:00Z,28.3507,-96.0058,2.0,171.1180716,16.38648834,-99999.0,'11111222,11111222,99999999' 
TABS,ioos:station:wmo:42049:1,2002-07-02T07:00:00Z,28.3507,-96.0058,2.0,182.8988009,16.41100241,-99999.0,'11111222,11111222,99999999' 
TABS,ioos:station:wmo:42049:1,2002-07-02T07:30:00Z,28.3507,-96.0058,2.0,184.9908057,16.32188715,-99999.0,'11111222,11111222,99999999' 
TABS,ioos:station:wmo:42049:1,2002-07-02T08:00:00Z,28.3507,-96.0058,2.0,187.3744419,14.80244574,-99999.0,'11111222,11111222,99999999' 
TABS,ioos:station:wmo:42049:1,2002-07-02T08:30:00Z,28.3507,-96.0058,2.0,189.4722547,18.53269813,-99999.0,'11111222,11111222,99999999' 
TABS,ioos:station:wmo:42049:1,2002-07-02T09:00:00Z,28.3507,-96.0058,2.0,170.5881104,13.02533685,-99999.0,'11111222,11111222,99999999' 
TABS,ioos:station:wmo:42049:1,2002-07-02T09:30:00Z,28.3507,-96.0058,2.0,174.5224336,10.26687879,-99999.0,'11111222,11111222,99999999' 
TABS,ioos:station:wmo:42049:1,2002-07-02T10:00:00Z,28.3507,-96.0058,2.0,175.8962979,6.847554308,-99999.0,'11133222,11111222,99999999' 
TABS,ioos:station:wmo:42049:1,2002-07-02T10:30:00Z,28.3507,-96.0058,2.0,194.521398,8.016090069,-99999.0,'11133222,11111222,99999999' 
TABS,ioos:station:wmo:42049:1,2002-07-02T11:00:00Z,28.3507,-96.0058,2.0,190.7066058,7.26650535,-99999.0,'11133222,11111222,99999999' 
TABS,ioos:station:wmo:42049:1,2002-07-02T11:30:00Z,28.3507,-96.0058,2.0,192.9943759,3.201999375,-99999.0,'11133222,11111222,99999999' 
TABS,ioos:station:wmo:42049:1,2002-07-02T12:00:00Z,28.3507,-96.0058,2.0,195.3921779,2.561893831,-99999.0,'11133222,11111222,99999999' 
TABS,ioos:station:wmo:42049:1,2002-07-02T12:30:00Z,28.3507,-96.0058,2.0,161.3360076,4.749778942,-99999.0,'11133222,11111222,99999999' 
TABS,ioos:station:wmo:42049:1,2002-07-02T13:00:00Z,28.3507,-96.0058,2.0,110.3340655,3.625961941,-99999.0,'11133222,11111222,99999999' 
TABS,ioos:station:wmo:42049:1,2002-07-02T13:30:00Z,28.3507,-96.0058,2.0,159.4437924,2.819521236,-99999.0,'11133222,11111222,99999999' 
TABS,ioos:station:wmo:42049:1,2002-07-02T14:00:00Z,28.3507,-96.0058,2.0,129.0243537,7.607377998,-99999.0,'11133222,11111222,99999999' 
TABS,ioos:station:wmo:42049:1,2002-07-02T14:30:00Z,28.3507,-96.0058,2.0,136.247063,4.87312015,-99999.0,'11133222,11111222,99999999' 
TABS,ioos:station:wmo:42049:1,2002-07-02T15:00:00Z,28.3507,-96.0058,2.0,134.6006284,4.058891474,-99999.0,'11133222,11111222,99999999' 
TABS,ioos:station:wmo:42049:1,2002-07-02T15:30:00Z,28.3507,-96.0058,2.0,118.9215049,5.438244202,-99999.0,'11133222,11111222,99999999' 
TABS,ioos:station:wmo:42049:1,2002-07-02T16:00:00Z,28.3507,-96.0058,2.0,120.8013739,8.475494086,-99999.0,'11133222,11111222,99999999' 
TABS,ioos:station:wmo:42049:1,2002-07-02T16:30:00Z,28.3507,-96.0058,2.0,129.913685,9.491390836,-99999.0,'11133222,11111222,99999999' 
TABS,ioos:station:wmo:42049:1,2002-07-02T17:00:00Z,28.3507,-96.0058,2.0,115.5518276,8.346310562,-99999.0,'11133222,11111222,99999999' 
TABS,ioos:station:wmo:42049:1,2002-07-02T17:30:00Z,28.3507,-96.0058,2.0,90.48636901,5.89021222,-99999.0,'11133222,11111222,99999999' 
TABS,ioos:station:wmo:42049:1,2002-07-02T18:00:00Z,28.3507,-96.0058,2.0,93.01999199,8.351598649,-99999.0,'11133222,11111222,99999999' 
TABS,ioos:station:wmo:42049:1,2002-07-02T18:30:00Z,28.3507,-96.0058,2.0,113.6398187,9.37687048,-99999.0,'11133222,11111222,99999999' 
TABS,ioos:station:wmo:42049:1,2002-07-02T19:00:00Z,28.3507,-96.0058,2.0,106.6992052,5.115750189,-99999.0,'11133222,11111222,99999999' 
TABS,ioos:station:wmo:42049:1,2002-07-02T19:30:00Z,28.3507,-96.0058,2.0,105.0871648,5.685991558,-99999.0,'11133222,11111222,99999999' 
TABS,ioos:station:wmo:42049:1,2002-07-02T20:00:00Z,28.3507,-96.0058,2.0,73.77154092,3.614000553,-99999.0,'11133222,11111222,99999999' 
TABS,ioos:station:wmo:42049:1,2002-07-02T20:30:00Z,28.3507,-96.0058,2.0,82.79269875,5.180936209,-99999.0,'11133222,11111222,99999999' 
TABS,ioos:station:wmo:42049:1,2002-07-02T21:00:00Z,28.3507,-96.0058,2.0,111.9078276,6.995155466,-99999.0,'11133222,11111222,99999999' 
TABS,ioos:station:wmo:42049:1,2002-07-02T21:30:00Z,28.3507,-96.0058,2.0,94.07377051,6.897427057,-99999.0,'11133222,11111222,99999999' 
TABS,ioos:station:wmo:42049:1,2002-07-02T22:00:00Z,28.3507,-96.0058,2.0,115.4758494,5.881921455,-99999.0,'11133222,11111222,99999999' 
TABS,ioos:station:wmo:42049:1,2002-07-02T22:30:00Z,28.3507,-96.0058,2.0,117.8240313,8.548315624,-99999.0,'11133222,11111222,99999999' 
TABS,ioos:station:wmo:42049:1,2002-07-02T23:00:00Z,28.3507,-96.0058,2.0,103.6871873,7.564826502,-99999.0,'11133222,11111222,99999999' 
TABS,ioos:station:wmo:42049:1,2002-07-02T23:30:00Z,28.3507,-96.0058,2.0,118.9485372,8.925161063,-99999.0,'11133222,11111222,99999999' 
TABS,ioos:station:wmo:42049:1,2002-07-03T00:00:00Z,28.3507,-96.0058,2.0,100.674531,10.25750457,-99999.0,'11111222,11111222,99999999' 
TABS,ioos:station:wmo:42049:1,2002-07-03T00:30:00Z,28.3507,-96.0058,2.0,108.1137174,7.33343712,-99999.0,'11133222,11111222,99999999' 
TABS,ioos:station:wmo:42049:1,2002-07-03T01:00:00Z,28.3507,-96.0058,2.0,104.3674827,9.228634785,-99999.0,'11133222,11111222,99999999' 
TABS,ioos:station:wmo:42049:1,2002-07-03T01:30:00Z,28.3507,-96.0058,2.0,106.5133122,6.790066274,-99999.0,'11133222,11111222,99999999' 
TABS,ioos:station:wmo:42049:1,2002-07-03T02:00:00Z,28.3507,-96.0058,2.0,127.7211701,13.72951565,-99999.0,'11111222,11111222,99999999' 
TABS,ioos:station:wmo:42049:1,2002-07-03T02:30:00Z,28.3507,-96.0058,2.0,130.5152992,13.02235002,-99999.0,'11111222,11111222,99999999' 
TABS,ioos:station:wmo:42049:1,2002-07-03T03:00:00Z,28.3507,-96.0058,2.0,134.9327252,12.06324998,-99999.0,'11111222,11111222,99999999' 
TABS,ioos:station:wmo:42049:1,2002-07-03T03:30:00Z,28.3507,-96.0058,2.0,127.6464613,12.09911154,-99999.0,'11111222,11111222,99999999' 
TABS,ioos:station:wmo:42049:1,2002-07-03T04:00:00Z,28.3507,-96.0058,2.0,116.7075152,8.989021081,-99999.0,'11133222,11111222,99999999' 
TABS,ioos:station:wmo:42049:1,2002-07-03T04:30:00Z,28.3507,-96.0058,2.0,129.4545904,7.317444909,-99999.0,'11133222,11111222,99999999' 
TABS,ioos:station:wmo:42049:1,2002-07-03T05:00:00Z,28.3507,-96.0058,2.0,126.712933,6.574024642,-99999.0,'11133222,11111222,99999999' 
TABS,ioos:station:wmo:42049:1,2002-07-03T05:30:00Z,28.3507,-96.0058,2.0,135.7060502,8.606143155,-99999.0,'11133222,11111222,99999999' 
TABS,ioos:station:wmo:42049:1,2002-07-03T06:00:00Z,28.3507,-96.0058,2.0,128.2974448,9.63299019,-99999.0,'11133222,11111222,99999999' 
TABS,ioos:station:wmo:42049:1,2002-07-03T06:30:00Z,28.3507,-96.0058,2.0,131.3820244,8.516395951,-99999.0,'11133222,11111222,99999999' 
TABS,ioos:station:wmo:42049:1,2002-07-03T07:00:00Z,28.3507,-96.0058,2.0,131.8743856,8.689125388,-99999.0,'11133222,11111222,99999999' 
TABS,ioos:station:wmo:42049:1,2002-07-03T07:30:00Z,28.3507,-96.0058,2.0,144.7409166,9.319683471,-99999.0,'11133222,11111222,99999999' 
TABS,ioos:station:wmo:42049:1,2002-07-03T08:00:00Z,28.3507,-96.0058,2.0,148.8584267,8.295426451,-99999.0,'11133222,11111222,99999999' 
TABS,ioos:station:wmo:42049:1,2002-07-03T08:30:00Z,28.3507,-96.0058,2.0,141.8135786,7.748044915,-99999.0,'11133222,11111222,99999999' 
TABS,ioos:station:wmo:42049:1,2002-07-03T09:00:00Z,28.3507,-96.0058,2.0,144.8435951,6.286811593,-99999.0,'11133222,11111222,99999999' 
TABS,ioos:station:wmo:42049:1,2002-07-03T09:30:00Z,28.3507,-96.0058,2.0,152.2854116,4.235965061,-99999.0,'11133222,11111222,99999999' 
TABS,ioos:station:wmo:42049:1,2002-07-03T10:00:00Z,28.3507,-96.0058,2.0,128.9693226,4.913298281,-99999.0,'11133222,11111222,99999999' 
TABS,ioos:station:wmo:42049:1,2002-07-03T10:30:00Z,28.3507,-96.0058,2.0,118.9492457,6.342507391,-99999.0,'11133222,11111222,99999999' 
TABS,ioos:station:wmo:42049:1,2002-07-03T11:00:00Z,28.3507,-96.0058,2.0,138.6912721,2.635905916,-99999.0,'11133222,11111222,99999999' 
TABS,ioos:station:wmo:42049:1,2002-07-03T11:30:00Z,28.3507,-96.0058,2.0,92.09015427,1.370912105,-99999.0,'11133222,11111222,99999999' 
TABS,ioos:station:wmo:42049:1,2002-07-03T12:00:00Z,28.3507,-96.0058,2.0,86.75089604,2.293686988,-99999.0,'11133222,11111222,99999999' 
TABS,ioos:station:wmo:42049:1,2002-07-03T12:30:00Z,28.3507,-96.0058,2.0,91.26135169,5.451320941,-99999.0,'11133222,11111222,99999999' 
TABS,ioos:station:wmo:42049:1,2002-07-03T13:00:00Z,28.3507,-96.0058,2.0,79.33024215,4.212837524,-99999.0,'11133222,11111222,99999999' 
TABS,ioos:station:wmo:42049:1,2002-07-03T13:30:00Z,28.3507,-96.0058,2.0,108.3677362,2.697424698,-99999.0,'11133222,11111222,99999999' 
TABS,ioos:station:wmo:42049:1,2002-07-03T14:00:00Z,28.3507,-96.0058,2.0,75.51393985,3.39802884,-99999.0,'11133222,11111222,99999999' 
TABS,ioos:station:wmo:42049:1,2002-07-03T14:30:00Z,28.3507,-96.0058,2.0,66.32298581,5.503244498,-99999.0,'11133222,11111222,99999999' 
TABS,ioos:station:wmo:42049:1,2002-07-03T15:00:00Z,28.3507,-96.0058,2.0,75.10837482,6.498253612,-99999.0,'11133222,11111222,99999999' 
TABS,ioos:station:wmo:42049:1,2002-07-03T15:30:00Z,28.3507,-96.0058,2.0,81.52733036,7.805184175,-99999.0,'11133222,11111222,99999999' 
TABS,ioos:station:wmo:42049:1,2002-07-03T16:00:00Z,28.3507,-96.0058,2.0,75.3470678,6.759859466,-99999.0,'11133222,11111222,99999999' 
TABS,ioos:station:wmo:42049:1,2002-07-03T16:30:00Z,28.3507,-96.0058,2.0,79.49460455,10.47559545,-99999.0,'11111222,11111222,99999999' 
TABS,ioos:station:wmo:42049:1,2002-07-03T17:00:00Z,28.3507,-96.0058,2.0,64.30578966,8.53382095,-99999.0,'11133222,11111222,99999999' 
TABS,ioos:station:wmo:42049:1,2002-07-03T17:30:00Z,28.3507,-96.0058,2.0,90.43078621,6.650187967,-99999.0,'11133222,11111222,99999999' 
TABS,ioos:station:wmo:42049:1,2002-07-03T18:00:00Z,28.3507,-96.0058,2.0,78.86960977,7.511284843,-99999.0,'11133222,11111222,99999999' 
TABS,ioos:station:wmo:42049:1,2002-07-03T18:30:00Z,28.3507,-96.0058,2.0,70.20116994,8.502611364,-99999.0,'11133222,11111222,99999999' 
TABS,ioos:station:wmo:42049:1,2002-07-03T19:00:00Z,28.3507,-96.0058,2.0,72.9882958,10.18567622,-99999.0,'11111222,11111222,99999999' 
TABS,ioos:station:wmo:42049:1,2002-07-03T19:30:00Z,28.3507,-96.0058,2.0,79.10955258,13.12640469,-99999.0,'11111222,11111222,99999999' 
TABS,ioos:station:wmo:42049:1,2002-07-03T20:00:00Z,28.3507,-96.0058,2.0,91.13136479,11.14217214,-99999.0,'11111222,11111222,99999999' 
TABS,ioos:station:wmo:42049:1,2002-07-03T20:30:00Z,28.3507,-96.0058,2.0,58.28273021,9.910045409,-99999.0,'11133222,11111222,99999999' 
TABS,ioos:station:wmo:42049:1,2002-07-03T21:00:00Z,28.3507,-96.0058,2.0,74.04699789,10.29654797,-99999.0,'11111222,11111222,99999999' 
TABS,ioos:station:wmo:42049:1,2002-07-03T21:30:00Z,28.3507,-96.0058,2.0,82.72222684,13.02493378,-99999.0,'11111222,11111222,99999999' 
TABS,ioos:station:wmo:42049:1,2002-07-03T22:00:00Z,28.3507,-96.0058,2.0,83.61905778,12.41692393,-99999.0,'11111222,11111222,99999999' 
TABS,ioos:station:wmo:42049:1,2002-07-03T22:30:00Z,28.3507,-96.0058,2.0,68.93515805,7.511997071,-99999.0,'11133222,11111222,99999999' 
TABS,ioos:station:wmo:42049:1,2002-07-03T23:00:00Z,28.3507,-96.0058,2.0,86.64490713,8.885229316,-99999.0,'11133222,11111222,99999999' 
TABS,ioos:station:wmo:42049:1,2002-07-03T23:30:00Z,28.3507,-96.0058,2.0,78.03292561,7.523509819,-99999.0,'11133222,11111222,99999999' 
TABS,ioos:station:wmo:42049:1,2002-07-04T00:00:00Z,28.3507,-96.0058,2.0,79.24373891,6.697678702,-99999.0,'11133222,11111222,99999999' 
TABS,ioos:station:wmo:42049:1,2002-07-04T00:30:00Z,28.3507,-96.0058,2.0,117.8746529,10.5659453,-99999.0,'11111222,11111222,99999999' 
TABS,ioos:station:wmo:42049:1,2002-07-04T01:00:00Z,28.3507,-96.0058,2.0,123.1752899,5.866191269,-99999.0,'11133222,11111222,99999999' 
TABS,ioos:station:wmo:42049:1,2002-07-04T01:30:00Z,28.3507,-96.0058,2.0,75.74829194,5.158769233,-99999.0,'11133222,11111222,99999999' 
TABS,ioos:station:wmo:42049:1,2002-07-04T02:00:00Z,28.3507,-96.0058,2.0,95.54530434,5.174214916,-99999.0,'11133222,11111222,99999999' 
TABS,ioos:station:wmo:42049:1,2002-07-04T02:30:00Z,28.3507,-96.0058,2.0,87.92429539,6.073985512,-99999.0,'11133222,11111222,99999999' 
TABS,ioos:station:wmo:42049:1,2002-07-04T03:00:00Z,28.3507,-96.0058,2.0,116.9744617,8.135023049,-99999.0,'11133222,11111222,99999999' 
TABS,ioos:station:wmo:42049:1,2002-07-04T03:30:00Z,28.3507,-96.0058,2.0,122.4711164,5.47613002,-99999.0,'11133222,11111222,99999999' 
TABS,ioos:station:wmo:42049:1,2002-07-04T04:00:00Z,28.3507,-96.0058,2.0,87.473889,2.722645772,-99999.0,'11133222,11111222,99999999' 
TABS,ioos:station:wmo:42049:1,2002-07-04T04:30:00Z,28.3507,-96.0058,2.0,126.3077138,5.708274696,-99999.0,'11133222,11111222,99999999' 
TABS,ioos:station:wmo:42049:1,2002-07-04T05:00:00Z,28.3507,-96.0058,2.0,123.9097919,6.506681182,-99999.0,'11133222,11111222,99999999' 
TABS,ioos:station:wmo:42049:1,2002-07-04T05:30:00Z,28.3507,-96.0058,2.0,120.2172033,4.212362757,-99999.0,'11133222,11111222,99999999' 
TABS,ioos:station:wmo:42049:1,2002-07-04T06:00:00Z,28.3507,-96.0058,2.0,98.78209201,4.846823702,-99999.0,'11133222,11111222,99999999' 
TABS,ioos:station:wmo:42049:1,2002-07-04T06:30:00Z,28.3507,-96.0058,2.0,100.8509121,5.630674915,-99999.0,'11133222,11111222,99999999' 
TABS,ioos:station:wmo:42049:1,2002-07-04T07:00:00Z,28.3507,-96.0058,2.0,128.5041081,5.75033912,-99999.0,'11133222,11111222,99999999' 
TABS,ioos:station:wmo:42049:1,2002-07-04T07:30:00Z,28.3507,-96.0058,2.0,121.9383742,6.351511631,-99999.0,'11133222,11111222,99999999' 
TABS,ioos:station:wmo:42049:1,2002-07-04T08:00:00Z,28.3507,-96.0058,2.0,129.0937675,7.215434845,-99999.0,'11133222,11111222,99999999' 
TABS,ioos:station:wmo:42049:1,2002-07-04T08:30:00Z,28.3507,-96.0058,2.0,130.2492554,7.769510924,-99999.0,'11133222,11111222,99999999' 
TABS,ioos:station:wmo:42049:1,2002-07-04T09:00:00Z,28.3507,-96.0058,2.0,107.3441866,6.977248741,-99999.0,'11133222,11111222,99999999' 
TABS,ioos:station:wmo:42049:1,2002-07-04T09:30:00Z,28.3507,-96.0058,2.0,115.4859756,7.599506563,-99999.0,'11133222,11111222,99999999' 
TABS,ioos:station:wmo:42049:1,2002-07-04T10:00:00Z,28.3507,-96.0058,2.0,102.1505428,7.886678642,-99999.0,'11133222,11111222,99999999' 
TABS,ioos:station:wmo:42049:1,2002-07-04T10:30:00Z,28.3507,-96.0058,2.0,110.1890842,11.87992003,-99999.0,'11111222,11111222,99999999' 
TABS,ioos:station:wmo:42049:1,2002-07-04T11:00:00Z,28.3507,-96.0058,2.0,102.9225567,10.7318032,-99999.0,'11111222,11111222,99999999' 
TABS,ioos:station:wmo:42049:1,2002-07-04T11:30:00Z,28.3507,-96.0058,2.0,98.69908174,5.553890528,-99999.0,'11133222,11111222,99999999' 
TABS,ioos:station:wmo:42049:1,2002-07-04T12:00:00Z,28.3507,-96.0058,2.0,106.0159741,8.916080978,-99999.0,'11133222,11111222,99999999' 
TABS,ioos:station:wmo:42049:1,2002-07-04T12:30:00Z,28.3507,-96.0058,2.0,92.50935887,7.537227607,-99999.0,'11133222,11111222,99999999' 
TABS,ioos:station:wmo:42049:1,2002-07-04T13:00:00Z,28.3507,-96.0058,2.0,119.495392,9.972487152,-99999.0,'11133222,11111222,99999999' 
TABS,ioos:station:wmo:42049:1,2002-07-04T13:30:00Z,28.3507,-96.0058,2.0,107.3588171,14.14420022,-99999.0,'11111222,11111222,99999999' 
TABS,ioos:station:wmo:42049:1,2002-07-04T14:00:00Z,28.3507,-96.0058,2.0,105.6422099,14.53844558,-99999.0,'11111222,11111222,99999999' 
TABS,ioos:station:wmo:42049:1,2002-07-04T14:30:00Z,28.3507,-96.0058,2.0,115.8127919,16.35153815,-99999.0,'11111222,11111222,99999999' 
TABS,ioos:station:wmo:42049:1,2002-07-04T15:00:00Z,28.3507,-96.0058,2.0,127.7725206,14.72582765,-99999.0,'11111222,11111222,99999999' 
TABS,ioos:station:wmo:42049:1,2002-07-04T15:30:00Z,28.3507,-96.0058,2.0,129.1034388,11.49473358,-99999.0,'11111222,11111222,99999999' 
TABS,ioos:station:wmo:42049:1,2002-07-04T16:00:00Z,28.3507,-96.0058,2.0,111.3609702,4.83193543,-99999.0,'11133222,11111222,99999999' 
TABS,ioos:station:wmo:42049:1,2002-07-04T16:30:00Z,28.3507,-96.0058,2.0,111.7420923,7.180842569,-99999.0,'11133222,11111222,99999999' 
TABS,ioos:station:wmo:42049:1,2002-07-04T17:00:00Z,28.3507,-96.0058,2.0,103.8971438,7.993997748,-99999.0,'11133222,11111222,99999999' 
TABS,ioos:station:wmo:42049:1,2002-07-04T17:30:00Z,28.3507,-96.0058,2.0,116.4865377,9.798459063,-99999.0,'11133222,11111222,99999999' 
TABS,ioos:station:wmo:42049:1,2002-07-04T18:00:00Z,28.3507,-96.0058,2.0,112.1587496,10.41956813,-99999.0,'11111222,11111222,99999999' 
TABS,ioos:station:wmo:42049:1,2002-07-04T18:30:00Z,28.3507,-96.0058,2.0,105.6673572,8.776069735,-99999.0,'11133222,11111222,99999999' 
TABS,ioos:station:wmo:42049:1,2002-07-04T19:00:00Z,28.3507,-96.0058,2.0,82.63824279,7.80433213,-99999.0,'11133222,11111222,99999999' 
TABS,ioos:station:wmo:42049:1,2002-07-04T19:30:00Z,28.3507,-96.0058,2.0,66.90959774,4.870164268,-99999.0,'11133222,11111222,99999999' 
TABS,ioos:station:wmo:42049:1,2002-07-04T20:00:00Z,28.3507,-96.0058,2.0,40.63959452,6.510084485,-99999.0,'11133222,11111222,99999999' 
TABS,ioos:station:wmo:42049:1,2002-07-04T20:30:00Z,28.3507,-96.0058,2.0,44.70362329,10.9320172,-99999.0,'11111222,11111222,99999999' 
TABS,ioos:station:wmo:42049:1,2002-07-04T21:00:00Z,28.3507,-96.0058,2.0,49.99462844,9.908834442,-99999.0,'11133222,11111222,99999999' 
TABS,ioos:station:wmo:42049:1,2002-07-04T21:30:00Z,28.3507,-96.0058,2.0,48.25614556,11.20451695,-99999.0,'11111222,11111222,99999999' 